Rawlins, WY

12:42 PM MDT on August 23, 2017 (GMT -0600)
Rawlins Municipal

Weather History for KRWL - November, 2012

Change the Weather History Date:

Saturday, November 3, 2012

  Actual Average Record
Temperature  
Mean Temperature 36 °F 36 °F  
Max Temperature 53 °F 48 °F 63 °F (2015)
Min Temperature 19 °F 25 °F 0 °F (1991)
Degree Days  
Heating Degree Days 29 29  
Month to date heating degree days 72 85  
Since 1 July heating degree days 940 1144  
Cooling Degree Days 0 0  
Month to date cooling degree days 0 0  
Year to date cooling degree days 419 186  
Moisture  
Dew Point 16 °F    
Average Humidity 47    
Maximum Humidity 74    
Minimum Humidity 19    
Precipitation  
Precipitation 0.00 in 0.02 in 0.46 in (1994)
Month to date precipitation 0.00 0.06  
Year to date precipitation 4.24 8.33  
Sea Level Pressure  
Sea Level Pressure 30.18 in    
Wind  
Wind Speed 10 mph (WSW)    
Max Wind Speed 23 mph    
Max Gust Speed 30 mph    
Visibility 10 miles    
Events      
T = Trace of Precipitation, MM = Missing Value Source: NWS Daily Summary

Daily Weather History Graph

Daily Weather History Graph

Search for Another Location

Airport or City:

Trip Planner

Search our weather history database for the weather conditions in past years. The results will help you decide how hot, cold, wet, or windy it might be!

Date:

Astronomy

Nov. 03, 2012 Rise Set
Actual Time 7:44 AM MDT 5:59 PM MDT
Civil Twilight 7:15 AM MDT 6:29 PM MDT
Nautical Twilight 6:42 AM MDT 7:02 PM MDT
Astronomical Twilight 6:09 AM MDT 7:34 PM MDT
Moon 9:42 PM MDT (11/3) 11:51 AM MDT (11/3)
Length of Visible Light 11h 13m
Length of Day
10h 15m
Waning Gibbous, 80% of the Moon is Illuminated
Nov 3
Waning Gibbous
Nov 6
Last Quarter
Nov 13
New
Nov 20
First Quarter
Nov 28
Full

Hourly Weather History & Observations

Time (MDT) Temp. Windchill Dew Point Humidity Pressure Visibility Wind Dir Wind Speed Gust Speed Precip Events Conditions
12:53 AM 30.0 °F 25.2 °F 17.1 °F 59% 30.12 in 10.0 mi West 4.6 mph - N/A   Clear
1:53 AM 28.0 °F - 17.1 °F 63% 30.13 in 10.0 mi Calm Calm - N/A   Clear
2:53 AM 23.0 °F - 15.1 °F 72% 30.15 in 10.0 mi Calm Calm - N/A   Clear
3:53 AM 25.0 °F - 15.1 °F 66% 30.14 in 10.0 mi Calm Calm - N/A   Clear
4:53 AM 30.9 °F 26.2 °F 17.1 °F 57% 30.12 in 10.0 mi West 4.6 mph - N/A   Clear
5:53 AM 21.9 °F 15.7 °F 14.0 °F 72% 30.19 in 10.0 mi South 4.6 mph - N/A   Clear
6:53 AM 24.1 °F - 15.1 °F 69% 30.20 in 10.0 mi Calm Calm - N/A   Clear
7:53 AM 25.0 °F 14.8 °F 17.1 °F 72% 30.26 in 10.0 mi SW 10.4 mph - N/A   Clear
8:53 AM 35.1 °F 26.4 °F 19.0 °F 52% 30.24 in 10.0 mi SW 12.7 mph - N/A   Clear
9:53 AM 39.9 °F 34.5 °F 19.9 °F 45% 30.23 in 10.0 mi SW 8.1 mph 18.4 mph N/A   Clear
10:53 AM 46.0 °F 40.2 °F 21.0 °F 37% 30.20 in 10.0 mi WSW 12.7 mph 19.6 mph N/A   Clear
11:53 AM 46.9 °F - 18.0 °F 32% 30.20 in 10.0 mi West 15.0 mph 20.7 mph N/A   Clear
12:53 PM 50.0 °F - 15.1 °F 25% 30.17 in 10.0 mi WSW 15.0 mph 20.7 mph N/A   Clear
1:53 PM 51.1 °F - 16.0 °F 25% 30.14 in 10.0 mi West 13.8 mph 26.5 mph N/A   Clear
2:53 PM 53.1 °F - 12.0 °F 20% 30.16 in 10.0 mi WSW 16.1 mph 26.5 mph N/A   Clear
3:53 PM 52.0 °F - 10.9 °F 19% 30.15 in 10.0 mi West 20.7 mph 27.6 mph N/A   Clear
4:53 PM 50.0 °F - 12.0 °F 22% 30.13 in 10.0 mi West 12.7 mph - N/A   Clear
5:53 PM 48.0 °F - 14.0 °F 26% 30.19 in 10.0 mi West 12.7 mph 20.7 mph N/A   Clear
6:53 PM 45.0 °F 39.7 °F 14.0 °F 29% 30.22 in 10.0 mi West 10.4 mph - N/A   Clear
7:53 PM 37.9 °F 33.5 °F 15.1 °F 39% 30.27 in 10.0 mi SSE 5.8 mph - N/A   Clear
8:53 PM 44.1 °F 39.5 °F 15.1 °F 31% 30.18 in 10.0 mi SSW 8.1 mph 16.1 mph N/A   Clear
9:53 PM 39.9 °F - 15.1 °F 36% 30.17 in 10.0 mi Calm Calm - N/A   Clear
10:53 PM 41.0 °F 33.1 °F 16.0 °F 36% 30.13 in 10.0 mi WSW 15.0 mph - N/A   Clear
11:53 PM 41.0 °F 33.1 °F 18.0 °F 40% 30.12 in 10.0 mi WSW 15.0 mph - N/A   Clear